Regional Weather Roundup
Issued by NWS

Home | Current Version | Previous Version | Graphics & Text | Print | Product List | Glossary On
Versions: 1 2 3 4 5 6 7 8 9 10 11 12 13 14 15 16 17 18 19 20 21 22 23 24 25 26 27 28 29 30 31 32 33 34 35 36 37 38 39 40 41 42 43 44 45 46 47 48 49 50
000
ASUS43 KFSD 221502
RWRSD

WEATHER ROUNDUP FOR SOUTH DAKOTA
NATIONAL WEATHER SERVICE SIOUX FALLS SD
1000 AM CDT SUN APR 22 2018

NOTE: "FAIR" INDICATES FEW OR NO CLOUDS BELOW 12,000 FEET WITH NO
SIGNIFICANT WEATHER AND/OR OBSTRUCTIONS TO VISIBILITY.


SDZ001>005-009-010-012>017-221600-
NORTHWEST AND NORTH CENTRAL SOUTH DAKOTA

CITY           SKY/WX    TMP DP  RH WIND       PRES   REMARKS
BUFFALO          N/A     51  39  63 CALM      30.08F
FAITH            N/A     45  39  79 SW13      30.16S
MOBRIDGE       SUNNY     48  39  71 S10       30.17F
$$

SDZ012>016-024>037-041>051-057-063-072>074-221600-
SOUTHWEST AND SOUTH CENTRAL SOUTH DAKOTA

CITY           SKY/WX    TMP DP  RH WIND       PRES   REMARKS
RAPID CTY ARPT SUNNY     44  37  76 SE5       30.17S
PIERRE         SUNNY     47  40  76 S6        30.22F
CUSTER         SUNNY     50  31  48 NE7       30.17S
ELLSWORTH AFB  SUNNY    N/A N/A N/A N10       30.17S
PHILIP         SUNNY     46  39  76 S8        30.20S
PINE RIDGE     SUNNY     45  40  82 S12       30.19S
SPEARFISH      FAIR      50  36  57 CALM      30.17S
WINNER         FAIR      49  36  61 S9        30.25S
$$

SDZ004>011-016>023-039-040-221600-
NORTHEAST SOUTH DAKOTA

CITY           SKY/WX    TMP DP  RH WIND       PRES   REMARKS
ABERDEEN       SUNNY     47  37  68 S6        30.28S
WATERTOWN      SUNNY     47  35  63 S9        30.28F
BROOKINGS      SUNNY     49  35  58 S10       30.31R
SISSETON         N/A     51  39  63 S7        30.27S
$$

SDZ017-020-022-023-036>040-048>070-221600-
SOUTHEAST SOUTH DAKOTA

CITY           SKY/WX    TMP DP  RH WIND       PRES   REMARKS
SIOUX FALLS    MOSUNNY   50  35  56 E6        30.29F
HURON          SUNNY     48  38  68 SE5       30.27F
CHAMBERLAIN    SUNNY     49  41  71 SW5       30.26S
MITCHELL       SUNNY     47  39  74 SE9       30.29S
YANKTON        SUNNY     48  35  60 E6        30.29F
$$

ABBREVIATIONS USED IN REMARKS
   TC - TEMPERATURE IN CELSIUS
  WCI - WIND CHILL INDEX
   HX - HEAT INDEX
  VSB - VISIBILITY





USA.gov is the U.S. government's official web portal to all federal, state and local government web resources and services.